www.pogodaiklimat.ru
ПОГОДА в Квиккйокк аэропорту
Время
(UTC), дата
01 7.12
02 7.12
03 7.12
04 7.12
05 7.12
06 7.12
07 7.12
08 7.12
09 7.12
10 7.12
11 7.12
12 7.12
13 7.12
14 7.12
15 7.12
16 7.12
17 7.12
18 7.12
19 7.12
20 7.12
21 7.12
22 7.12
23 7.12
00 8.12
01 8.12
02 8.12
03 8.12
04 8.12
05 8.12
06 8.12
07 8.12
08 8.12
09 8.12
10 8.12
11 8.12
12 8.12
13 8.12
14 8.12
15 8.12
16 8.12
17 8.12
18 8.12
19 8.12
20 8.12
21 8.12
22 8.12
23 8.12
00 9.12
01 9.12
02 9.12
03 9.12
04 9.12
05 9.12
06 9.12
07 9.12
08 9.12
09 9.12
10 9.12
11 9.12
12 9.12
13 9.12
14 9.12
15 9.12
16 9.12
17 9.12
18 9.12
19 9.12
20 9.12
21 9.12
22 9.12
23 9.12
00 10.12
01 10.12
02 10.12
03 10.12
04 10.12
05 10.12
06 10.12
07 10.12
08 10.12
09 10.12
10 10.12
11 10.12
12 10.12
13 10.12
14 10.12
15 10.12
16 10.12
17 10.12
18 10.12
19 10.12
20 10.12
21 10.12
22 10.12
23 10.12
00 11.12
01 11.12
02 11.12
03 11.12
04 11.12
05 11.12
06 11.12
07 11.12
08 11.12
09 11.12
10 11.12
11 11.12
12 11.12
13 11.12
14 11.12
15 11.12
16 11.12
17 11.12
18 11.12
19 11.12
20 11.12
21 11.12
22 11.12
23 11.12
00 12.12
01 12.12
02 12.12
03 12.12
04 12.12
05 12.12
06 12.12
07 12.12
08 12.12
09 12.12
10 12.12
11 12.12
12 12.12
13 12.12
14 12.12
15 12.12
16 12.12
17 12.12
18 12.12
19 12.12
20 12.12
21 12.12
22 12.12
23 12.12
00 13.12
01 13.12
02 13.12
03 13.12
04 13.12
05 13.12
06 13.12
07 13.12
08 13.12
09 13.12
10 13.12
11 13.12
12 13.12
13 13.12
14 13.12
15 13.12
16 13.12
17 13.12
18 13.12
19 13.12
20 13.12
21 13.12
22 13.12
23 13.12
00 14.12
01 14.12
02 14.12
Ветер
(напр.,м/с)
Видим. Явления Облачность Т
(С)
Тd
(С)
f
(%)
Тe
(С)
Тes
(С)
Комфортность P
(гПа)
Po
(гПа)
Тmin
(С)
Tmax
(С)
R
(мм)
R24
(мм)
S
(см)
СЗ 1
{3}
50 км н/о -12.2 -14.1 86 -14 -14 978.9 940.2
СЗ 1
{2}
50 км н/о -13.7 -16.0 83 -16 -16 979.4 940.6
СЗ 1
{3}
50 км н/о -13.9 -16.3 82 -16 -16 979.2 940.5
СЗ 1
{2}
50 км н/о -14.9 -18.6 73 -17 -17 979.3 940.4
С 1
{2}
50 км н/о -15.1 -18.6 75 -18 -18 979.5 940.6
С 1
{3}
50 км н/о -15.3 -19.1 73 -18 -18 979.9 940.9 -15.4 -6.9
С 1
{3}
50 км н/о -15.4 -18.9 74 -18 -18 979.8 940.9
С 1
{2}
50 км н/о -15.8 -20.0 70 -18 -18 980.1 941.2
СЗ 2
{5}
50 км н/о -14.1 -17.4 76 -19 -19 979.9 941.0
С 1
{3}
50 км н/о -15.6 -19.5 72 -18 -18 979.7 940.8
В 1
{3}
50 км н/о -14.0 -17.5 75 -16 -16 979.2 940.4
ЮЗ 1
{5}
50 км н/о -11.6 -15.2 75 -14 -14 978.8 940.1
С 1
{3}
50 км н/о -13.1 -17.0 72 -15 -15 978.4 939.7
СВ 1
{3}
50 км н/о -13.0 -16.7 74 -15 -15 978.6 939.9
СЗ 1
{2}
50 км н/о -14.8 -18.6 73 -17 -17 978.7 939.8
СЗ 1
{2}
50 км н/о -14.5 -18.6 71 -17 -17 978.9 940.1
СВ 1
{2}
50 км в посл. час снег {ливн. осадки} н/о -12.8 -17.0 71 -15 -15 979.0 940.3 0.0
штиль 0
{2}
50 км {ливн. осадки, снег} н/о -14.3 -18.5 70 -14 -14 979.0 940.2 -15.9 -11.5
СЗ 1
{2}
50 км н/о -15.0 -18.8 73 -18 -18 979.5 940.6
З 1
{4}
50 км н/о -14.6 -17.6 78 -17 -17 979.7 940.8
Ю 1
{4}
50 км н/о -13.4 -16.6 77 -16 -16 979.7 940.9
З 3
{7}
50 км н/о -3.5 -6.5 80 -9 -9 978.7 940.7
З 3
{6}
50 км н/о -2.6 -7.1 71 -7 -7 979.2 941.2
З 1
{10}
50 км н/о -1.7 -7.3 66 -3 -3 979.0 941.2
З 1
{6}
50 км н/о -2.8 -7.5 70 -5 -5 979.4 941.4
СВ 1
{5}
50 км н/о -5.3 -9.3 73 -7 -7 979.8 941.6
СЗ 1
{3}
50 км н/о -8.1 -11.3 78 -10 -10 980.1 941.7
ЮВ 1
{3}
50 км н/о -10.8 -13.0 84 -13 -13 980.8 942.1
СВ 1
{3}
50 км н/о -11.1 -12.8 87 -13 -13 980.9 942.2
СВ 2
{4}
50 км н/о -13.7 -15.8 84 -18 -18 981.8 942.9 -15.2 -0.5
СЗ 1
{3}
50 км н/о -15.1 -18.5 75 -18 -18 982.2 943.2
С 2
{3}
50 км н/о -17.1 -19.3 83 -22 -22 982.5 943.3
СЗ 1
{3}
50 км н/о -16.6 -18.3 87 -19 -19 982.3 943.2
СЗ 1
{3}
45 км н/о -14.7 -16.5 86 -17 -17 982.1 943.2
Ю 1
{2}
50 км н/о -12.7 -14.4 87 -15 -15 982.0 943.2
С 1
{2}
50 км н/о -11.9 -13.5 88 -14 -14 981.8 943.0
С 1
{2}
50 км н/о -11.2 -14.1 79 -13 -13 981.5 942.8
СЗ 1
{3}
8000 м слаб. ливневой снег н/о -10.6 -14.4 74 -13 -13 981.3 942.7 0.1
С 1
{2}
3100 м слаб. снег н/о -11.3 -15.4 72 -14 -14 980.9 942.2 0.1
С 1
{2}
8000 м слаб. снег н/о -11.6 -15.5 73 -14 -14 980.1 941.5
СЗ 1
{2}
1400 м снег {ливн. осадки} н/о -10.7 -14.7 72 -13 -13 979.8 941.2 0.1
СЗ 1 1800 м слаб. снег н/о -10.1 -14.1 72 -12 -12 979.6 941.0 -17.4 -10.1 0.2
Ю 1
{2}
2100 м слаб. снег н/о -9.7 -13.9 71 -12 -12 979.2 940.7 0.2
С 1
{1}
1800 м слаб. снег н/о -9.7 -13.7 73 -12 -12 978.9 940.4 0.2
В 1
{2}
1200 м слаб. снег н/о -9.4 -13.1 74 -12 -12 978.5 940.0 0.2
З 1
{2}
2400 м слаб. снег н/о -10.1 -14.0 73 -12 -12 977.9 939.4 0.1
С 1
{2}
30 км слаб. снег н/о -9.6 -13.0 76 -12 -12 977.6 939.2
СЗ 1
{2}
45 км в посл. час снег {ливн. осадки} н/о -9.0 -12.3 77 -11 -11 977.5 939.1 0.0
штиль 0
{2}
10 км слаб. снег н/о -8.7 -12.7 73 -9 -9 977.3 939.0 0.2
штиль 0
{2}
1000 м слаб. снег н/о -8.1 -11.8 75 -9 -9 977.4 939.1 0.6
СЗ 1
{2}
2800 м слаб. снег н/о -8.0 -12.5 70 -10 -10 977.4 939.1 0.5
СЗ 1
{1}
1700 м слаб. снег н/о -8.1 -12.0 73 -10 -10 977.6 939.3 0.3
З 1
{1}
5000 м слаб. снег н/о -8.1 -12.3 72 -10 -10 978.1 939.8 0.1
З 1
{2}
23 км в посл. час снег {ливн. осадки} н/о -8.3 -12.1 74 -11 -11 978.6 940.3 -10.4 -7.5 0.0

{1}
29 км в посл. час снег н/о -8.3 -12.3 73 979.4 941.0 0.0
С 1
{2}
1900 м слаб. снег {метель} н/о -8.4 -12.3 73 -11 -11 980.3 941.8 0.1
З 1
{2}
3500 м слаб. снег {метель} н/о -8.1 -12.2 72 -10 -10 981.1 942.6 0.4
З 1
{3}
3700 м слаб. снег {метель} н/о -8.2 -12.0 74 -10 -10 982.0 943.5 0.2
З 1
{2}
8000 м слаб. снег {метель} н/о -8.4 -12.4 73 -11 -11 982.8 944.3 0.1
штиль 0 27 км в посл. час снег {метель} н/о -8.5 -12.7 72 -9 -9 983.5 945.0
штиль 0
{2}
50 км н/о -8.8 -12.9 72 -9 -9 984.2 945.6
ЮВ 1
{2}
45 км н/о -9.0 -12.4 76 -11 -11 985.2 946.5
СЗ 1
{2}
22 км н/о -9.6 -13.4 74 -12 -12 986.3 947.5
СЗ 1
{2}
50 км в посл. час снег {ливн. осадки} н/о -11.9 -16.4 69 -14 -14 987.3 948.4 0.0
СЗ 1
{3}
50 км {ливн. осадки, снег} н/о -16.3 -21.1 66 -19 -19 988.6 949.2
В 1
{3}
50 км {ливн. осадки, снег} н/о -18.6 -21.1 81 -21 -21 989.9 950.4 -18.6 -7.2
СЗ 1
{3}
50 км н/о -19.3 -22.0 79 -22 -22 991.3 951.6
СЗ 1
{3}
50 км н/о -20.6 -23.3 79 -24 -24 993.1 953.3
С 1
{2}
50 км н/о -21.4 -24.3 77 -25 -25 994.7 954.7
СЗ 1
{3}
50 км н/о -21.3 -23.9 79 -24 -24 996.1 956.1
С 1
{2}
50 км н/о -21.7 -24.7 77 -25 -25 997.2 957.1
С 1
{2}
50 км н/о -22.6 -25.6 76 -26 -26 998.5 958.3
СЗ 1
{3}
50 км н/о -22.8 -25.7 77 -26 -26 999.9 959.6
С 1
{2}
50 км н/о -23.9 -27.0 75 -27 -27 1001.1 960.7
ЮЗ 1
{3}
50 км н/о -24.2 -27.1 77 -28 -28 1002.0 961.6
З 1
{3}
50 км н/о -24.1 -26.8 78 -28 -28 1003.0 962.5
Ю 1
{4}
50 км н/о -23.4 -26.2 78 -27 -27 1004.0 963.5
С 1
{2}
50 км н/о -23.9 -26.8 77 -27 -27 1004.8 964.3 -24.7 -18.5
СЗ 1
{2}
50 км н/о -23.2 -26.3 76 -27 -27 1005.5 965.0
ЮВ 1
{2}
50 км н/о -23.8 -26.7 77 -27 -27 1006.6 966.0
СЗ 1
{3}
50 км н/о -22.8 -25.5 79 -26 -26 1007.5 966.9
С 1
{3}
50 км н/о -23.0 -26.1 76 -26 -26 1007.9 967.3
штиль 0
{2}
50 км н/о -24.3 -27.4 75 -24 -24 1008.3 967.6
Ю 1 50 км н/о -24.1 -27.0 77 -28 -28 1009.1 968.4
З 1
{2}
50 км н/о -24.8 -27.7 77 -28 -28 1009.2 968.4
СЗ 1
{1}
50 км н/о -25.3 -28.6 74 -29 -29 1009.6 968.8
С 1
{2}
50 км н/о -25.3 -28.5 75 -29 -29 1010.0 969.1
З 1
{2}
50 км н/о -26.3 -29.6 74 -30 -30 1009.6 968.6
штиль 0
{2}
50 км н/о -26.9 -30.1 74 -27 -27 1009.4 968.4
ЮВ 1
{2}
50 км н/о -26.2 -29.3 75 -30 -30 1008.9 968.0 -27.0 -22.3
СЗ 1
{2}
50 км н/о -25.3 -28.3 76 -29 -29 1008.2 967.4
СЗ 1
{2}
50 км н/о -24.0 -26.8 78 -27 -27 1007.7 967.0
С 1
{2}
50 км н/о -22.4 -25.0 79 -26 -26 1006.3 965.8
штиль 0
{2}
50 км н/о -21.1 -23.8 79 -21 -21 1004.8 964.5
ЮЗ 1
{2}
45 км н/о -19.7 -22.3 80 -23 -23 1003.5 963.3
В 1
{3}
1700 м слаб. снег н/о -17.6 -19.6 84 -20 -20 1001.4 961.4 0.8
СЗ 1
{4}
900 м снег н/о -15.8 -17.8 85 -18 -18 999.0 959.3 0.8
В 2
{4}
800 м слаб. снег н/о -14.5 -17.0 81 -19 -19 996.6 957.1 0.5
СВ 1
{4}
600 м снег н/о -14.0 -18.4 69 -16 -16 994.8 955.4 1
З 1
{3}
700 м снег 10/10 630 м
[]
-13.6 -18.2 68 -16 -16 993.0 953.7 0.3
ЮЗ 1
{2}
300 м сильн. снег н/о -14.1 -17.1 78 -17 -17 991.6 952.3 0.4
Ю 1
{2}
700 м снег н/о -14.1 -16.6 81 -17 -17 990.5 951.2 -13.4 0.8
штиль 0
{2}
700 м снег н/о -14.4 -16.7 83 -14 -14 989.1 949.9 1
штиль 0
{2}
1700 м слаб. снег н/о -14.0 -17.1 77 -14 -14 988.3 949.2 1
З 1
{1}
1200 м слаб. снег н/о -13.4 -16.4 78 -16 -16 987.6 948.5 0.9
СЗ 1
{2}
3900 м осадки н/о -12.5 -15.6 78 -15 -15 986.7 947.7 0.7
З 1
{2}
1600 м слаб. снег {осадки} н/о -11.7 -13.9 84 -14 -14 986.3 947.4 0.5
ЮЗ 1
{2}
2200 м слаб. снег {осадки} н/о -11.5 -13.5 85 -14 -14 986.3 947.4 0.6
ЮЗ 1 2800 м слаб. снег н/о -11.3 -13.1 87 -14 -14 986.5 947.6 0.5
ЮЗ 1
{2}
12 км слаб. снег н/о -10.9 -12.7 87 -13 -13 987.0 948.1 0.2
СЗ 1
{2}
50 км в посл. час снег {метель} н/о -11.9 -14.0 84 -14 -14 987.5 948.5 0.0
СЗ 1
{2}
50 км {снег, метель} н/о -13.0 -15.0 85 -15 -15 988.1 949.0
ЮЗ 1
{3}
50 км {снег, метель} н/о -14.7 -16.4 87 -17 -17 989.0 949.8
С 1
{3}
50 км {снег, метель} н/о -14.7 -16.7 85 -17 -17 990.0 950.7 -15.3 -10.8
С 1
{2}
30 км н/о -15.3 -17.3 85 -18 -18 991.0 951.7
З 2
{6}
10 км слаб. снег н/о -13.1 -15.2 84 -18 -18 991.4 952.2 0.0
В 1
{4}
50 км в посл. час снег {ливн. осадки} н/о -15.4 -17.5 84 -18 -18 992.2 952.8 0.0
С 2
{3}
50 км {ливн. осадки, снег} н/о -16.3 -18.8 81 -22 -22 992.7 953.2
СЗ 2
{3}
50 км {ливн. осадки, снег} н/о -17.2 -19.6 82 -23 -23 992.9 953.3
СЗ 2
{4}
50 км {ливн. осадки, снег} н/о -16.4 -18.2 86 -22 -22 993.4 953.9
С 2
{3}
45 км н/о -13.8 -15.3 88 -19 -19 993.4 954.0
СЗ 1
{2}
3700 м слаб. снег н/о -10.9 -14.5 75 -13 -13 993.4 954.2 0.0
СВ 1
{3}
14 км в посл. час снег н/о -7.9 -11.1 78 -10 -10 992.4 953.5 0.1
СВ 1
{3}
17 км {снег, метель} н/о -6.5 -9.7 78 -9 -9 992.4 953.7
СВ 1
{3}
24 км {снег, метель} н/о -6.4 -9.7 77 -9 -9 992.3 953.6
СЗ 1
{3}
50 км {снег, метель} н/о -6.3 -10.1 74 -9 -9 991.7 953.0 -17.4 -6.1
С 1
{3}
50 км н/о -6.0 -9.6 76 -8 -8 992.1 953.4
В 1
{2}
40 км н/о -5.6 -9.1 76 -8 -8 992.4 953.7
С 1
{3}
50 км н/о -4.9 -8.1 78 -7 -7 992.0 953.4
С 2
{3}
11 км осадки н/о -5.0 -7.9 80 -9 -9 992.1 953.4 0.1
СВ 1
{3}
6000 м слаб. снег {осадки} н/о -4.1 -7.4 78 -6 -6 991.9 953.4 0.1
В 1
{4}
19 км в посл. час снег н/о -3.8 -7.1 78 -6 -6 991.8 953.3
ЮВ 1
{3}
50 км в посл. час снег {ливн. осадки} н/о -3.7 -7.1 77 -6 -6 991.5 953.0
В 2
{4}
50 км {ливн. осадки, снег} н/о -3.2 -6.5 78 -7 -7 991.2 952.8
СВ 2
{4}
50 км {ливн. осадки, снег} н/о -3.0 -6.2 79 -7 -7 991.0 952.5
С 1
{4}
50 км {ливн. осадки, снег} н/о -3.2 -6.4 79 -5 -5 991.0 952.6
СВ 1
{2}
40 км {ливн. осадки, снег} н/о -3.2 -6.4 79 -5 -5 990.7 952.2
З 1
{3}
50 км {ливн. осадки, снег} н/о -3.4 -6.5 79 -6 -6 990.4 952.0 -6.3 -2.8
В 1
{3}
50 км н/о -2.5 -5.7 79 -5 -5 990.4 952.0
штиль 0
{3}
50 км н/о -2.5 -6.1 76 -3 -3 990.2 951.9
СВ 1
{3}
50 км н/о -2.9 -6.0 79 -5 -5 989.9 951.6
В 2
{3}
50 км н/о -2.3 -5.2 80 -6 -6 989.8 951.5
СВ 1
{4}
50 км н/о -1.2 -2.2 93 -3 -3 989.6 951.3
СВ 1
{3}
50 км в посл. час снег {ливн. осадки} н/о -1.3 -2.0 95 -4 -4 989.5 951.3
СВ 1
{3}
50 км ясно -1.1 -2.0 94 -3 -3 989.3 951.1
В 1
{3}
50 км в посл. час осадки {ливн. осадки, метель} 10/0
[]
-1.1 -1.6 96 -3 -3 989.2 951.0
ЮВ 2
{4}
45 км {ливн. осадки, метель} н/о -0.3 -1.0 95 -4 -4 989.1 950.9
В 1
{3}
50 км {ливн. осадки, метель} н/о -1.0 -1.6 96 -3 -3 989.1 950.9
ЮВ 1
{2}
50 км {ливн. осадки, метель} н/о -1.7 -2.2 96 -4 -4 989.2 951.0
СЗ 1
{3}
50 км {ливн. осадки, метель} н/о -1.4 -2.0 96 -4 -4 989.4 951.2 -3.4 -0.3
СЗ 1
{2}
50 км н/о -1.8 -2.3 96 -4 -4 989.9 951.6
ЮВ 1
{2}
50 км н/о -1.9 -2.4 96 -4 -4 990.5 952.2
В 1
{2}
50 км н/о -1.8 -2.4 96 -4 -4 991.1 952.7
штиль 0
{2}
50 км н/о -1.8 -2.3 96 -3 -3 991.3 952.9
Ю 1
{3}
10 км слаб. ливневой снег {дождь} н/о -1.4 -1.8 97 -4 -4 991.5 953.1
С 1
{3}
26 км ливневой дождь н/о -1.4 -2.1 95 -4 -4 991.8 953.5 0.0
ЮЗ 1
{3}
50 км в посл. час осадки {ливн. осадки} н/о -1.6 -2.3 95 -4 -4 992.1 953.8
З 1
{3}
50 км {ливн. осадки, осадки} н/о -1.5 -2.2 95 -4 -4 992.7 954.3
ЮЗ 1
{2}
50 км {ливн. осадки, осадки} н/о -2.0 -2.6 96 -4 -4 993.1 954.7
штиль 0
{1}
50 км {ливн. осадки, осадки} н/о -2.5 -3.1 96 -4 -4 993.6 955.1
С 1
{2}
50 км {ливн. осадки, осадки} н/о -2.5 -3.1 96 -5 -5 994.0 955.5
СЗ 1
{2}
35 км {ливн. осадки, осадки} н/о -2.5 -3.1 96 -5 -5 994.3 955.8 -2.6 -0.7
ЮЗ 1
{2}
35 км слаб. переохл. дождь (гололёд) н/о -2.5 -3.1 96 -5 -5 995.0 956.4
штиль 0
{2}
50 км в посл. час переохл. осадки (гололёд) н/о -2.7 -3.3 96 -4 -4 995.4 956.8
Ю 1
{3}
50 км {ливн. осадки, дождь} н/о -2.0 -2.9 94 -4 -4 995.7 957.2
Ю 1
{3}
50 км {ливн. осадки, дождь} н/о -2.7 -3.3 96 -5 -5 996.2 957.6
штиль 0
{4}
50 км {ливн. осадки, дождь} н/о -2.6 -3.4 94 -4 -4 996.5 957.9
ЮЗ 1
{4}
50 км {ливн. осадки, дождь} н/о -2.6 -3.3 95 -5 -5 997.1 958.4
ЮЗ 1
{4}
27 км н/о -2.3 -3.2 94 -5 -5 997.5 958.9
Ю 1
{2}
40 км в посл. час переохл. осадки (гололёд) н/о -2.7 -3.5 94 -5 -5 997.9 959.3
Местоположение метеостанции Квиккйокк аэропорт (Швеция): широта 66.88 долгота 18.02 высота над уровнем моря 317 м.
В архиве по умолчанию представлена погода в Квиккйокк аэропорту за последнюю неделю. Архивные данные за месяц целиком и за предыдущие месяцы, начиная с января 2011 года, Вы можете получить, выбрав интересующий диапазон дат из раскрывающегося списка и нажав кнопку "Найти!".
*Определитесь, кто Вы:
Внимание! Время в таблицах - всемирное. Для получения местного времени необходимо прибавить поправку, которая равна 1 ч.
Смотрите также архив погоды в соседних городах и на ближайших метеорологических станциях:
Партнеры нашего сайта:      
Пояснения к столбцам:
  • Ветер - указаны скорость ветра в м/с - средняя за 10 мин, порывы в срок и между сроками (в фигурных скобках) и направление, откуда дует ветер: С - северный,
  • СВ - северо-восточный, В - восточный, ЮВ - юго-восточный, Ю - южный, ЮЗ - юго-западный, З - западный, СЗ - северо-западный.
  • Видимость - горизонтальная дальность видимости в метрах или километрах. При видимости от 1 до 10 км при отсутствии осадков обычно наблюдается дымка, при ухудшении видимости до 1 км и менее - туман. В сухую погоду видимость может ухудшаться дымом, пылью или мглою.
  • Явления - указаны атмосферные явления, наблюдавшиеся в срок или в последний час перед сроком; фигурными скобками обозначены явления, наблюдавшиеся между сроками (за 1-3 часа до срока); квадратными скобками обозначены град или гололедные отложения с указанием их диаметра в мм.
  • Облачность - указаны через наклонную черту общая и нижняя облачность в баллах и высота нижней границы облаков в метрах; квадратными скобками обозначены формы облаков: Ci - перистые, Cs - перисто-слоистые, Cc - перисто-кучевые, Ac - высококучевые, As - высокослоистые, Sc - слоисто-кучевые, Ns - слоисто-дождевые, Cu - кучевые, Cb - кучево-дождевые. Подробнее классификацию облаков см. в Атласе облаков (PDF).
  • T - Температура воздуха - температура, измеренная на высоте 2 м над землей.
  • Td - Температура точки росы - температура, при понижении до которой содержащийся в воздухе водяной пар достигнет насыщения.
  • f - Относительная влажность воздуха - влажноcть воздуха, измеренная на высоте 2 м над землей.
  • Te - Эффективная температура - температура, которую ощущает одетый по сезону человек в тени. Характеристика душности погоды. При расчете учитывается влияние влажности воздуха и скорости ветра на теплоощущения человека.
  • Tes - Эффективная температура на солнце - температура, которую ощущает человек, с поправкой на солнечный нагрев. Характеристика знойности погоды. Зависит от высоты солнца над горизонтом, облачности и скорости ветра. Ночью, в пасмурную погоду, а также при ветре 12 м/с и более поправка равна нулю.
  • P - Атмосферное давление - приведенное к уровню моря атмосферное давление.
  • Po - Атмосферное давление - измеренное на уровне метеостанции атмосферное давление.
  • Tmin - Минимальная температура - минимум температуры воздуха на высоте 2 м над землей.
  • Tmax - Максимальная температура - максимум температуры воздуха на высоте 2 м над землей.
  • R - Количество осадков - Количество выпавших осадков за период времени, мм. При наведении курсора мыши на число - период времени, за который выпало указанное количество осадков.
  • R24 - Количество осадков - Количество выпавших осадков за 24 часа, мм.
  • S - Снежный покров - Высота снежного покрова, см. При наведении курсора мыши на число - состояние снежного покрова и степень покрытия местности в баллах.